Location: Six Mile Lake
(44.9000°N, 79.7170°W)
Time: 04:00:33
(UTC-04:00)

AO-92 - Pass Details

Date: 06 July 2022
Orbit: 469 x 481 km, 97.4° (Epoch: 17 August)

Event Time Altitude Azimuth Distance (km) Brightness Sun altitude
Exits shadow 22:53:24 25° 124° (SE) 996 ? -14.3°
Maximum altitude 22:54:56 40° 72° (ENE) 723 ? -14.5°
Drops below altitude 10° 22:58:19 10° 2° (N) 1,673 ? -14.8°
Sets 23:00:28 0° 355° (N) 2,560 ? -15.0°
